Regional Weather Roundup
Issued by NWS

Home | Current Version | Previous Version | Graphics & Text | Print | Product List | Glossary On
Versions: 1 2 3 4 5 6 7 8 9 10 11 12 13 14 15 16 17 18 19 20 21 22 23 24 25 26 27 28 29 30 31 32 33 34 35 36 37 38 39 40 41 42 43 44 45 46 47 48 49 50
000
ASUS43 KBIS 190010
RWRND

NORTH DAKOTA REGIONAL WEATHER ROUNDUP
NATIONAL WEATHER SERVICE BISMARCK ND
600 PM CST THU DEC 18 2014

NOTE: "FAIR" INDICATES FEW OR NO CLOUDS BELOW 12,000 FEET WITH NO
SIGNIFICANT WEATHER AND/OR OBSTRUCTIONS TO VISIBILITY.


NDZ001>003-009>011-017-190100-
NORTHWEST NORTH DAKOTA

CITY           SKY/WX    TMP DP  RH WIND       PRES   REMARKS
WILLISTON      CLOUDY    28  25  88 S7        29.95S
6HR MIN TEMP:  24; 6HR MAX TEMP:  28;

MINOT          CLOUDY    23  18  81 SE6       29.98F WCI  16
MINOT AFB      CLOUDY    22  22  99 SE8       29.98F WCI  13
$$

NDZ018>021-031>035-040>046-190100-
SOUTHWEST NORTH DAKOTA

CITY           SKY/WX    TMP DP  RH WIND       PRES   REMARKS
BISMARCK       CLOUDY    27  24  89 S6        30.03R
6HR MIN TEMP:  21; 6HR MAX TEMP:  27;

DICKINSON      CLEAR     23  21  92 S8        29.92S FOG     WCI  14
GARRISON         N/A     26  22  84 SW5       29.98S
6HR MIN TEMP:  20; 6HR MAX TEMP:  26;

HETTINGER ARPT CLEAR     27  24  89 S6        29.97R
$$

NDZ004>008-012>016-024-026-027-054-190100-
NORTHEAST NORTH DAKOTA

CITY           SKY/WX    TMP DP  RH WIND       PRES   REMARKS
GRAND FORKS    CLOUDY    19  14  81 S9        30.17F WCI   8
GRND FRKS AFB  CLOUDY    19  18  96 S10       30.16F WCI   7
DEVILS LAKE    CLOUDY    19  12  73 SE12      30.05S WCI   7
$$

NDZ022-023-025-028>030-036>039-047>053-190100-
SOUTHEAST NORTH DAKOTA

CITY           SKY/WX    TMP DP  RH WIND       PRES   REMARKS
FARGO          CLOUDY    20  15  81 SE13      30.18F WCI   7
6HR MIN TEMP:  17; 6HR MAX TEMP:  20;

JAMESTOWN      CLOUDY    22  19  89 S10       30.07F WCI  11
$$




USA.gov is the U.S. government's official web portal to all federal, state and local government web resources and services.